Location: Poughquag
(41.6090°N, 73.6820°W)
Time: 02:08:32
(UTC-04:00)

Transit 2A - Pass Details

Date: 06 June 2020
Orbit: 592 x 967 km, 66.7° (Epoch: 06 July)

Event Time Altitude Azimuth Distance (km) Brightness Sun altitude
Rises 11:16:15 0° 166° (SSE) 2,999 9.4 62.3°
Reaches altitude 10° 11:19:02 10° 149° (SSE) 2,153 8.9 62.7°
Maximum altitude 11:22:27 19° 104° (ESE) 1,703 8.6 63.2°
Drops below altitude 10° 11:26:06 10° 61° (ENE) 2,336 8.8 63.7°
Sets 11:29:16 0° 44° (NE) 3,349 9.3 64.2°
